Keokuk, IA

12:02 PM CST on December 14, 2017 (GMT -0600)
Keokuk Municipal

Weather History for KEOK - December, 2012

Change the Weather History Date:

Monday, December 10, 2012

  Actual Average Record
Temperature  
Mean Temperature 26 °F -  
Max Temperature 32 °F 39 °F 63 °F (1979)
Min Temperature 19 °F 23 °F -3 °F (1977)
Degree Days  
Heating Degree Days 40    
Moisture  
Dew Point 18 °F    
Average Humidity 72    
Maximum Humidity 80    
Minimum Humidity 64    
Precipitation  
Precipitation 0.00 in - - ()
Sea Level Pressure  
Sea Level Pressure 29.95 in    
Wind  
Wind Speed 11 mph (WNW)    
Max Wind Speed 18 mph    
Max Gust Speed 28 mph    
Visibility 10 miles    
Events      
Averages and records for this station are not official NWS values.
T = Trace of Precipitation, MM = Missing Value Source: NWS Daily Summary

Daily Weather History Graph

Daily Weather History Graph

Search for Another Location

Airport or City:

Trip Planner

Search our weather history database for the weather conditions in past years. The results will help you decide how hot, cold, wet, or windy it might be!

Date:

Astronomy

Dec. 10, 2012 Rise Set
Actual Time 7:18 AM CST 4:39 PM CST
Civil Twilight 6:47 AM CST 5:09 PM CST
Nautical Twilight 6:13 AM CST 5:43 PM CST
Astronomical Twilight 5:40 AM CST 6:17 PM CST
Moon 4:01 AM CST (12/10) 2:28 PM CST (12/10)
Length of Visible Light 10h 22m
Length of Day
9h 20m
Waning Crescent, 10% of the Moon is Illuminated
Dec 10
Waning Crescent
Dec 13
New
Dec 19
First Quarter
Dec 28
Full
Jan 4
Last Quarter

Hourly Weather History & Observations

Time (CST) Temp. Windchill Dew Point Humidity Pressure Visibility Wind Dir Wind Speed Gust Speed Precip Events Conditions
12:15 AM 26.6 °F 15.2 °F 17.6 °F 69% 29.91 in 10.0 mi West 13.8 mph 25.3 mph N/A   Overcast
12:35 AM 26.6 °F 13.8 °F 17.6 °F 69% 29.91 in 10.0 mi WNW 17.3 mph 27.6 mph N/A   Overcast
12:55 AM 24.8 °F 12.9 °F 17.6 °F 74% 29.90 in 10.0 mi WNW 13.8 mph 23.0 mph N/A   Overcast
1:15 AM 24.8 °F 11.5 °F 17.6 °F 74% 29.90 in 10.0 mi WNW 17.3 mph 23.0 mph N/A   Overcast
1:35 AM 24.8 °F 11.9 °F 17.6 °F 74% 29.90 in 10.0 mi West 16.1 mph - N/A   Overcast
1:55 AM 24.8 °F 11.1 °F 17.6 °F 74% 29.90 in 10.0 mi WNW 18.4 mph - N/A   Overcast
2:15 AM 24.8 °F 12.9 °F 17.6 °F 74% 29.91 in 10.0 mi West 13.8 mph - N/A   Overcast
2:55 AM 24.8 °F 12.9 °F 17.6 °F 74% 29.90 in 10.0 mi WNW 13.8 mph 18.4 mph N/A   Overcast
3:15 AM 24.8 °F 11.9 °F 17.6 °F 74% 29.90 in 10.0 mi West 16.1 mph - N/A   Overcast
3:35 AM 24.8 °F 12.9 °F 15.8 °F 69% 29.90 in 10.0 mi WNW 13.8 mph - N/A   Overcast
3:55 AM 24.8 °F 14.0 °F 15.8 °F 69% 29.90 in 10.0 mi WNW 11.5 mph - N/A   Overcast
4:15 AM 24.8 °F 12.9 °F 15.8 °F 69% 29.90 in 10.0 mi West 13.8 mph 19.6 mph N/A   Overcast
4:35 AM 24.8 °F 12.4 °F 17.6 °F 74% 29.91 in 10.0 mi WNW 15.0 mph - N/A   Overcast
4:55 AM 24.8 °F 15.3 °F 17.6 °F 74% 29.90 in 10.0 mi West 9.2 mph - N/A   Overcast
5:15 AM 24.8 °F 13.4 °F 17.6 °F 74% 29.90 in 10.0 mi WNW 12.7 mph - N/A   Overcast
5:35 AM 24.8 °F 13.4 °F 17.6 °F 74% 29.91 in 10.0 mi WNW 12.7 mph - N/A   Overcast
5:55 AM 24.8 °F 14.6 °F 17.6 °F 74% 29.91 in 10.0 mi West 10.4 mph - N/A   Overcast
6:15 AM 24.8 °F 14.0 °F 17.6 °F 74% 29.91 in 10.0 mi WNW 11.5 mph 18.4 mph N/A   Overcast
6:35 AM 24.8 °F 12.4 °F 17.6 °F 74% 29.91 in 10.0 mi WNW 15.0 mph - N/A   Overcast
6:55 AM 23.0 °F 11.1 °F 17.6 °F 80% 29.92 in 10.0 mi WNW 12.7 mph 16.1 mph N/A   Overcast
7:15 AM 24.8 °F 14.0 °F 17.6 °F 74% 29.94 in 10.0 mi West 11.5 mph - N/A   Overcast
7:35 AM 24.8 °F 13.4 °F 15.8 °F 69% 29.93 in 10.0 mi WNW 12.7 mph - N/A   Overcast
7:55 AM 24.8 °F 14.0 °F 17.6 °F 74% 29.94 in 10.0 mi West 11.5 mph - N/A   Overcast
8:15 AM 24.8 °F 12.4 °F 17.6 °F 74% 29.95 in 10.0 mi West 15.0 mph 20.7 mph N/A   Overcast
8:35 AM 24.8 °F 14.6 °F 17.6 °F 74% 29.95 in 10.0 mi WNW 10.4 mph - N/A   Overcast
8:55 AM 24.8 °F 14.0 °F 17.6 °F 74% 29.95 in 10.0 mi WNW 11.5 mph 17.3 mph N/A   Overcast
9:15 AM 24.8 °F 12.4 °F 17.6 °F 74% 29.96 in 10.0 mi West 15.0 mph - N/A   Overcast
9:35 AM 24.8 °F 15.3 °F 17.6 °F 74% 29.97 in 10.0 mi WNW 9.2 mph - N/A   Overcast
9:55 AM 24.8 °F 13.4 °F 17.6 °F 74% 29.97 in 10.0 mi WNW 12.7 mph - N/A   Overcast
10:15 AM 26.6 °F 14.3 °F 17.6 °F 69% 29.97 in 10.0 mi WNW 16.1 mph - N/A   Overcast
10:35 AM 26.6 °F 15.2 °F 17.6 °F 69% 29.96 in 10.0 mi WNW 13.8 mph - N/A   Overcast
10:55 AM 26.6 °F 15.7 °F 17.6 °F 69% 29.97 in 10.0 mi WNW 12.7 mph - N/A   Overcast
11:15 AM 26.6 °F 16.2 °F 17.6 °F 69% 29.95 in 10.0 mi WNW 11.5 mph 16.1 mph N/A   Overcast
11:35 AM 28.4 °F 20.4 °F 19.4 °F 69% 29.94 in 10.0 mi WNW 8.1 mph - N/A   Overcast
11:55 AM 28.4 °F 18.5 °F 19.4 °F 69% 29.93 in 10.0 mi West 11.5 mph 18.4 mph N/A   Overcast
12:15 PM 28.4 °F 18.0 °F 19.4 °F 69% 29.93 in 10.0 mi WNW 12.7 mph 16.1 mph N/A   Overcast
12:35 PM 30.2 °F 20.8 °F 19.4 °F 64% 29.93 in 10.0 mi West 11.5 mph 16.1 mph N/A   Overcast
12:55 PM 30.2 °F 19.8 °F 19.4 °F 64% 29.93 in 10.0 mi NW 13.8 mph 18.4 mph N/A   Overcast
1:15 PM 30.2 °F 20.2 °F 19.4 °F 64% 29.93 in 10.0 mi West 12.7 mph - N/A   Overcast
1:35 PM 30.2 °F 21.9 °F 19.4 °F 64% 29.93 in 10.0 mi NW 9.2 mph 16.1 mph N/A   Overcast
1:55 PM 30.2 °F 21.3 °F 19.4 °F 64% 29.92 in 10.0 mi WNW 10.4 mph - N/A   Overcast
2:15 PM 30.2 °F 22.6 °F 19.4 °F 64% 29.93 in 10.0 mi WNW 8.1 mph - N/A   Overcast
2:35 PM 30.2 °F 21.9 °F 21.2 °F 69% 29.93 in 10.0 mi WNW 9.2 mph - N/A   Overcast
2:55 PM 30.2 °F 24.3 °F 21.2 °F 69% 29.93 in 10.0 mi WNW 5.8 mph - N/A   Overcast
3:15 PM 32.0 °F 24.8 °F 21.2 °F 64% 29.94 in 10.0 mi NW 8.1 mph - N/A   Overcast
3:35 PM 32.0 °F 27.5 °F 21.2 °F 64% 29.94 in 10.0 mi NW 4.6 mph - N/A   Overcast
3:55 PM 30.2 °F - 21.2 °F 69% 29.95 in 10.0 mi Calm Calm - N/A   Overcast
4:15 PM 30.2 °F - 19.4 °F 64% 29.95 in 10.0 mi Calm Calm - N/A   Mostly Cloudy
4:35 PM 30.2 °F 24.3 °F 19.4 °F 64% 29.96 in 10.0 mi WNW 5.8 mph - N/A   Scattered Clouds
4:55 PM 28.4 °F 22.2 °F 19.4 °F 69% 29.96 in 10.0 mi WNW 5.8 mph - N/A   Scattered Clouds
5:15 PM 28.4 °F 24.6 °F 19.4 °F 69% 29.97 in 10.0 mi West 3.5 mph - N/A   Scattered Clouds
5:35 PM 28.4 °F - 19.4 °F 69% 29.98 in 10.0 mi Calm Calm - N/A   Mostly Cloudy
5:55 PM 28.4 °F - 19.4 °F 69% 29.98 in 10.0 mi Calm Calm - N/A   Mostly Cloudy
6:15 PM 28.4 °F - 19.4 °F 69% 29.99 in 10.0 mi Calm Calm - N/A   Mostly Cloudy
6:35 PM 28.4 °F - 19.4 °F 69% 29.98 in 10.0 mi Calm Calm - N/A   Scattered Clouds
6:55 PM 28.4 °F - 19.4 °F 69% 29.99 in 10.0 mi Calm Calm - N/A   Clear
7:15 PM 26.6 °F - 17.6 °F 69% 29.99 in 10.0 mi Calm Calm - N/A   Clear
7:35 PM 24.8 °F - 17.6 °F 74% 30.00 in 10.0 mi Calm Calm - N/A   Clear
7:55 PM 24.8 °F - 17.6 °F 74% 30.00 in 10.0 mi Calm Calm - N/A   Clear
8:15 PM 24.8 °F - 17.6 °F 74% 30.01 in 10.0 mi Calm Calm - N/A   Clear
8:55 PM 21.2 °F - 15.8 °F 80% 30.01 in 10.0 mi Calm Calm - N/A   Clear
9:15 PM 21.2 °F - 15.8 °F 80% 30.01 in 10.0 mi Calm Calm - N/A   Clear
9:35 PM 19.4 °F - 14.0 °F 80% 30.01 in 10.0 mi Calm Calm - N/A   Clear
9:55 PM 21.2 °F - 15.8 °F 80% 30.02 in 10.0 mi Calm Calm - N/A   Clear
10:15 PM 19.4 °F 12.8 °F 14.0 °F 80% 30.03 in 10.0 mi SW 4.6 mph - N/A   Clear
10:35 PM 21.2 °F - 15.8 °F 80% 30.02 in 10.0 mi Calm Calm - N/A   Clear
10:55 PM 21.2 °F 16.4 °F 15.8 °F 80% 30.02 in 10.0 mi WSW 3.5 mph - N/A   Clear
11:15 PM 21.2 °F 14.9 °F 15.8 °F 80% 30.02 in 10.0 mi WSW 4.6 mph - N/A   Clear
11:35 PM 21.2 °F 16.4 °F 14.0 °F 74% 30.02 in 10.0 mi WSW 3.5 mph - N/A   Clear
11:55 PM 19.4 °F 11.5 °F 14.0 °F 80% 30.02 in 10.0 mi WSW 5.8 mph - N/A   Clear